Regional Weather Roundup
Issued by NWS Upton, NY

Current Version | Previous Version | Graphics & Text | Print | Product List | Glossary Off
Versions: 1 2 3 4 5 6 7 8 9 10 11 12 13 14 15 16 17 18 19 20 21 22 23 24 25 26 27 28 29 30 31 32 33 34 35 36 37 38 39 40 41 42 43 44 45 46 47 48 49 50

000
ASUS41 KOKX 310905
RWROKX

REGIONAL WEATHER ROUNDUP
NATIONAL WEATHER SERVICE NEW YORK NY
500 AM EDT THU JUL 31 2014

NOTE: "FAIR" INDICATES FEW OR NO CLOUDS BELOW 12,000 FEET WITH NO
SIGNIFICANT WEATHER AND/OR OBSTRUCTIONS TO VISIBILITY.

NYZ071-072-176-178-NJZ106-104-311000-
NEW YORK CITY METRO AREA


CITY           SKY/WX    TMP DP  RH WIND       PRES   REMARKS
CENTRAL PARK   PTCLDY    68  54  60 CALM      30.09S
LAGUARDIA APRT PTCLDY    70  55  59 SW3       30.05S
KENNEDY INTL   PTCLDY    68  56  65 W7        30.07S
NEWARK/LIBERTY PTCLDY    64  55  72 SW5       30.06S
BRNX BOT. GARD   N/A     66  55  68 CALM      30.08R
TETERBORO      PTCLDY    67  56  67 CALM      30.05S
$$

NYZ177-179-078>081-311000-
LONG ISLAND NEW YORK

CITY           SKY/WX    TMP DP  RH WIND       PRES   REMARKS
FARMINGDALE    PTCLDY    63  60  90 CALM      30.07S
ISLIP          CLEAR     65  59  81 CALM      30.06R
SHIRLEY        CLEAR     63  60  90 CALM      30.08R
WESTHAMPTON    CLEAR     54  50  86 CALM      30.09R
MONTAUK POINT    N/A     67  64  90 VRB3      30.09S
$$

NYZ052-065-067-311000-
HUDSON VALLEY

CITY           SKY/WX    TMP DP  RH WIND       PRES   REMARKS
WHITE PLAINS   PTCLDY    62  58  86 CALM      30.06S
NEWBURGH       NOT AVBL
MONTGOMERY     PTCLDY    55  53  93 CALM      30.06R
POUGHKEEPSIE   MOCLDY    58  55  90 CALM      30.05R
ALBANY         CLOUDY    65  57  75 S6        30.03R
$$

NJZ001-105-106-008-010-013-015-019>022-104-311000-
NEW JERSEY

CITY           SKY/WX    TMP DP  RH WIND       PRES   REMARKS
NEWARK/LIBERTY PTCLDY    64  55  72 SW5       30.06S
TETERBORO      PTCLDY    67  56  67 CALM      30.05S
CALDWELL       PTCLDY    58  54  86 CALM      30.07S
MORRISTOWN     CLEAR     55  54  94 CALM      30.07S
SOMERVILLE     CLEAR     54  53  97 CALM      30.06R
LINDEN         FAIR      65  56  73 CALM      30.08S
SUSSEX         MOCLDY    56  53  90 CALM      30.07R
ANDOVER          N/A     55  54  96 CALM      30.08R
TRENTON        CLEAR     60  55  83 CALM      30.07R
MILLVILLE      CLEAR     57  55  93 CALM      30.09R
ATLANTIC CITY  CLEAR     57  54  89 CALM      30.09R
WRIGHTSTOWN    CLEAR     61  58  90 SE2       30.06R
TOMS RIVER     CLEAR     55  54  94 CALM      30.08S
BELMAR         CLEAR     63  54  72 SW5       30.08R
$$

PAZ047>061-062-071-311000-
EASTERN PENNSYLVANIA

CITY           SKY/WX    TMP DP  RH WIND       PRES   REMARKS
PHILADELPHIA   PTCLDY    66  57  72 S5        30.08R
ALLENTOWN      LGT RAIN  63  58  83 CALM      30.06S
SCRANTON       CLOUDY    59  55  87 CALM      30.06R
$$

CTZ002-004>006-009-010-012-RIZ004-006-007-MAZ004-011-015-311000-
SOUTHERN NEW ENGLAND
 IN CT

CITY           SKY/WX    TMP DP  RH WIND       PRES   REMARKS
BRADLEY INTL   CLEAR     58  54  86 CALM      30.06R
HARTFORD       CLEAR     61  58  90 CALM      30.06S
DANBURY        CLEAR     56  53  90 CALM      30.09R
WTRBRY/OXFORD  CLEAR     57  52  82 CALM      30.09R
BRIDGEPORT     CLEAR     64  60  87 N3        30.06S
MERIDEN        CLEAR     57  54  89 CALM      30.07S
NEW HAVEN      CLEAR     63  59  87 CALM      30.07R
CHESTER        FAIR      61  59  94 CALM      30.09R
GROTON         CLEAR     58  58 100 CALM      30.07S
WILLIMANTIC    PTCLDY    55  53  93 CALM      30.09R

 IN RI

CITY           SKY/WX    TMP DP  RH WIND       PRES   REMARKS
PROVIDENCE     CLEAR     58  56  93 CALM      30.08S
BLOCK ISLAND   CLEAR     64  59  82 SW7       30.08S
WESTERLY       CLEAR     57  54  89 CALM      30.09R

 IN MA

CITY           SKY/WX    TMP DP  RH WIND       PRES   REMARKS
BOSTON         CLEAR     65  57  75 SW6       30.07R
WORCESTER      CLEAR     57  54  89 W7        30.09R
WESTFIELD      CLEAR     55  53  93 CALM      30.07R
PROVINCETOWN   CLEAR     64  59  82 SW8       30.09R
NANTUCKET      CLEAR     62  60  93 S5        30.11R
$$

ANZ330-335-338-340-345-350-353-355-311000-
COASTAL MARINE OBSERVATIONS


STATION/POSITION TIME  SKY/WX   TEMP    WIND        PRES    VSBY  WAVE
                                AIR SEA DIR/SP/G                  HT/PER
                 (UTC)          (F)     (DEG/KT/KT) (MB)    (MI)  (FT/S)
NY HARB ENTRANCE NOT AVBL
4S FIRE IS       NOT AVBL
23SW MTP         0900            70 70              1018.2          4/ 8
HUDSON CANYON    0900            72 74  240/  8/  8 1018.9          3/ 8
EXECUTION ROCKS  0900            69 70  210/  4/  6   N/A
WESTERN LI SOUND 0900            69     250/  2/  4   N/A           0
CENTRAL LI SOUND 0800            71 72  200/ 10/ 12   N/A           1/ 3
EASTERN LI SOUND 0800            68 67  210/  2/  4   N/A
ROBBINS REEF     0900            68     260/  7/  8   N/A
$$


>>>>>>>>>>>>>>>>>>>>>>>>>>>> KEY <<<<<<<<<<<<<<<<<<<<<<<<<<<
>                                                          <
>     SKY/WX - SKY CONDITION/PRESENT WEATHER               <
>     TMP    - TEMPERATURE IN FAHRENHEIT                   <
>     DP     - DEWPOINT IN FAHRENHEIT                      <
>     RH     - RELATIVE HUMIDITY IN PERCENT                <
>     WIND   - DIRECTION AND SPEED IN MPH                  <
>     PRES   - MEAN SEA LEVEL PRESSURE IN INCHES OF HG     <
>     WCI    - WIND CHILL INDEX                            <
>     VSB    - VISIBILITY IN MILES                         <
>     HX     - HEAT INDEX                                  <
>     TC     - TEMPERATURE IN CELSIUS                      <
>     VRB    - VARIABLE WIND DIRECTION                     <
>                                                          <
>>>>>>>>>>>>>>>>>>>>>>>>>>>> KEY <<<<<<<<<<<<<<<<<<<<<<<<<<<





USA.gov is the U.S. government's official web portal to all federal, state and local government web resources and services.